パンスターズ彗星

P/2019 A4 ( PanSTARRS )

English version
Home page
Updated on May 20, 2019

---------------------------------------------------------------------

・ プロフィール

発見日 2019年1月10日
発見光度 20.6等
発見者 Pan-STARRS 1 telescope (Haleakala)

・ 写真集

・ 軌道要素

Epoch 2018 Nov. 18.0 TT = JDT 2458440.5
T 2018 Dec. 4.76537 TT                                  MPCW
q   2.3792589            (2000.0)            P               Q
n   0.23327057     Peri.  341.70788     -0.19830686     -0.95932810
a   2.6135416      Node   119.30001     +0.92557279     -0.25072986
e   0.0896418      Incl.   13.31949     +0.32247388     +0.12970787
P   4.23
From 65 observations 2018 Dec. 31-2019 Mar. 2, mean residual 0".6.

・ 光度変化

        m1 = 15.0 + 5 logΔ + 10.0 log r

---------------------------------------------------------------------

軌道要素はM.P.E.C. 2019-J142に掲載されたものです。
光度グラフはComet for Windowsで作成したものです。

---------------------------------------------------------------------

Copyright(C) Seiichi Yoshida (comet@aerith.net). All rights reserved.